#timestamp,LO_Frequency,Hit,StdDev 
1593982815.6,286047002.0,N
1593982835.4,286047001.5,N
1593982855.3,286047001.7,N
1593982875.1,286047001.5,N
1593982895.9,286047003.1,N
1593982915.7,286047005.9,Y
1593982935.5,286047003.7,P
1593982955.4,286047001.9,N
1593982975.2,286047003.3,N
1593982995.0,286047003.2,N
1593982995.9,286047003.2,N
1593983015.8,286047005.6,Y
1593983035.6,286047001.9,P
1593983055.5,286047001.7,P
1593983075.3,286047002.5,P
1593983095.1,286046999.8,N
1593983115.9,286047002.7,N
1593983135.7,286047002.8,N
1593983155.5,286047004.3,Y
1593983175.4,286047000.3,P
1593983195.2,286047002.3,N
1593983215.1,286047002.6,N
1593983216.0,286047002.6,N
1593983235.8,286047001.5,N
1593983255.6,286047002.2,N
1593983275.5,286047001.9,N
1593983295.3,286047003.9,Y
1593983315.2,286047002.3,P
1593983335.9,286046999.9,N
1593983355.7,286047002.1,N
1593983375.6,286047002.1,N
1593983395.4,286047000.1,N
1593983415.3,286047001.0,N
1593983435.1,286047001.2,N
1593983436.0,286047001.2,N
1593983455.8,286047001.0,N
1593983475.7,286047000.8,N
1593983495.5,286047001.1,N
1593983515.3,286047000.6,N
1593983535.2,286047000.8,N
1593983555.0,286047002.3,Y
1593983555.9,286047002.3,P
1593983575.8,286047002.1,P
1593983595.6,286047006.0,P
1593983615.4,286047003.7,N
1593983635.3,286047003.9,N
1593983655.1,286047001.3,N
1593983675.9,286047003.9,N
1593983695.7,286047002.1,N
1593983715.5,286047001.6,N
1593983735.4,286047001.6,N
1593983755.2,286047001.6,N
1593983775.0,286047001.8,N
1593983776.0,286047001.8,N
1593983795.8,286047004.4,Y
1593983815.6,286047002.0,P
1593983835.5,286047002.7,P
1593983855.3,286047002.7,P
1593983875.1,286047002.7,Y
1593983895.9,286047000.8,P
1593983915.7,286047001.2,N
1593983935.6,286047000.7,N
1593983955.4,286046998.1,N
1593983975.2,286047000.8,N
1593983995.1,286047001.2,N
1593983996.0,286047001.2,N
1593984015.8,286046998.5,N
1593984035.6,286046998.2,N
1593984055.5,286047000.7,N
1593984075.3,286047001.2,N
1593984095.2,286046999.9,N
1593984115.9,286047001.8,N
1593984135.7,286047002.5,N
1593984155.6,286047001.4,N
1593984175.4,286047003.7,N
1593984195.2,286047003.5,N
1593984215.1,286047003.3,N
1593984216.0,286047003.3,N
1593984235.8,286047005.3,Y
1593984255.7,286047003.5,P
1593984275.5,286047003.8,P
1593984295.3,286047004.3,P
1593984315.2,286047005.4,Y
1593984335.0,286047004.2,P
1593984335.9,286047004.2,P
1593984355.8,286047001.3,N
1593984375.6,286047004.4,Y
1593984395.4,286047001.1,P
1593984415.3,286046999.4,N
1593984435.1,286046997.9,N
1593984455.8,286046997.2,N
1593984475.7,286046999.2,N
1593984495.5,286046996.8,N
1593984515.4,286046999.6,N
1593984535.2,286046998.5,N
1593984555.0,286046999.3,N
1593984555.9,286046999.3,N
1593984575.8,286046998.8,N
1593984595.6,286046998.3,N
1593984615.4,286046999.4,N
1593984635.3,286046998.5,N
1593984655.1,286047000.7,N
1593984675.9,286047000.6,N
1593984695.7,286046999.9,N
1593984715.5,286047000.0,N
1593984735.4,286046999.8,N
1593984755.2,286046999.8,N
1593984775.0,286047002.7,N
1593984775.9,286047002.7,N
1593984795.8,286047002.4,N
1593984815.6,286047002.7,N
1593984835.5,286047000.5,N
1593984855.3,286046999.9,N
1593984875.1,286047000.4,N
1593984895.9,286047001.7,N
1593984915.7,286047002.6,N
1593984935.5,286047000.1,N
1593984955.4,286047004.4,N
1593984975.2,286047001.7,N
1593984995.1,286047004.0,N
1593984996.0,286047004.0,N
1593985015.8,286047003.9,N
1593985035.6,286047002.1,N
1593985055.5,286047001.8,N
1593985075.3,286047002.4,N
1593985095.2,286047001.8,N
1593985115.9,286047002.6,N
1593985135.7,286047002.6,N
1593985155.6,286047002.0,N
1593985175.4,286047001.8,N
1593985195.2,286047001.3,N
1593985215.1,286047003.0,N
1593985216.0,286047003.0,N
1593985235.8,286047005.7,Y
1593985255.7,286047003.2,P
1593985275.5,286047003.9,P
1593985295.3,286047004.1,P
1593985315.2,286047003.7,Y
1593985335.0,286047001.0,P
1593985335.9,286047001.0,N
1593985355.8,286047000.9,N
1593985375.6,286047000.9,N
1593985395.4,286047000.9,N
1593985415.3,286047000.5,N
1593985435.1,286047000.2,N
1593985455.8,286046999.8,N
1593985475.7,286047002.8,Y
1593985495.5,286047000.1,P
1593985515.4,286046999.7,N
1593985535.2,286047002.8,P
1593985555.0,286047000.4,N
1593985555.9,286047000.4,N
1593985575.8,286046998.1,N
1593985595.6,286046999.9,N
1593985615.4,286047002.5,N
1593985635.3,286047001.5,N
1593985655.1,286047003.8,N
1593985675.9,286047004.0,N
1593985695.7,286047003.8,N
1593985715.5,286047004.3,N
1593985735.4,286047003.5,N
1593985755.2,286047004.0,N
1593985775.0,286047004.1,N
1593985775.9,286047004.1,N
1593985795.8,286047003.8,N
1593985815.6,286047005.8,Y
1593985835.5,286047003.9,P
1593985855.3,286047004.2,P
1593985875.1,286047003.6,P
1593985895.9,286047003.5,Y
1593985915.7,286046998.3,P
1593985935.6,286046998.2,N
1593985955.4,286047000.8,N
1593985975.2,286046998.1,N
1593985995.1,286047001.1,N
1593985996.0,286047001.1,N
1593986015.8,286046998.1,N
1593986035.6,286047000.3,N
1593986085.5,286047000.0,E
1593986095.4,286047000.2,N
1593986115.3,286047000.1,P
1593986135.1,286047001.7,P
1593986155.9,286047002.9,Y
1593986175.7,286047003.7,P
1593986195.5,286047003.3,N
1593986215.4,286047002.9,N
1593986235.2,286047003.4,N
1593986255.0,286047003.0,N
1593986255.9,286047003.0,N
1593986275.8,286047003.8,Y
1593986295.6,286047000.1,P
1593986315.5,286046999.9,N
1593986335.3,286047002.8,N
1593986355.1,286046999.8,N
1593986375.9,286047000.1,N
1593986395.7,286047000.3,N
